X-SAT

Last updated on Mon Jun 22 2026 00:03:38 GMT+0000 (Coordinated Universal Time)

1 37389U 11015C 26172.50804947 .00000008 00000+0 20762-4 0 9991 2 37389 98.3515 149.3261 0013614 335.6963 24.3573 14.25206842788291
UTC large
Height (km)
Speed (km/s)
/
Latitude / Longitude
Inclination (degrees)
Orbital Period (minutes)
Azimuth
Elevation
Range (km)
Doppler Factor

Next 0 passes for location: London (51.5072 / 0.1276)

No passes found over London.
X-SAT